Location: Anmer
(52.8333°N, 0.5833°E)
Time: 21:54:06
(UTC+00:00)

Cosmos 1428 Rocket - Pass Details

Date: 15 May 2026
Orbit: 946 x 988 km, 82.9° (Epoch: 10 June)

Event Time Altitude Azimuth Distance (km) Brightness Sun altitude
Rises 21:28:05 0° 349° (N) 3,686 8.8 -11.5°
Reaches altitude 10° 21:30:38 10° 351° (N) 2,729 8.0 -11.7°
Maximum altitude 21:36:54 78° 79° (ENE) 990 4.5 -12.2°
Enters shadow 21:42:00 16° 164° (SSE) 2,297 5.9 -12.6°
